    Orbital elements:
        C/2004 Q2 (Machholz)
    Epoch 2005 Jan. 30.0 TT = JDT 2453400.5
    T 2005 Jan. 24.91399 TT                                 MPC
    q   1.2050688            (2000.0)            P               Q
    z  +0.0004122      Peri.   19.50355     -0.32005679     -0.71419719
     +/-0.0000172      Node    93.62618     +0.76512907     -0.58232656
    e   0.9995033      Incl.   38.58922     +0.55869594     +0.38835314
    Residuals in seconds of arc
    040827 413  0.1-  0.1-    040908 D74  0.3+  0.7+    040927 I77  0.1-  0.0
    040827 413  0.1-  0.1-    040909 D86  0.3-  0.3+    040927 I77  0.3+  0.1-
    040827 413  0.1+  0.2-    040909 D86  0.2+  0.1-    040927 I77  0.2+  0.0
    040827 413  0.0   0.2-    040909 D86  1.1-  0.5-    040927 I77  0.3+  0.0
    040827 413  0.1-  0.2-    040910 844  0.1-  1.0-    040930 I05  0.7-  0.1-
    040827 413  0.1-  0.2-    040910 844  0.0   0.9-    040930 I05  0.2-  0.6+
    040828 952  0.5+  0.1-    040910 844  0.1+  0.5-    040930 349  0.4-  0.2+
    040828 952  0.4+  0.1-    040910 844  0.2+  0.9-    040930 349  0.3-  0.0
    040828 952  0.0   0.1-    040910 844  0.3+  0.4-    040930 349  0.0   0.1-
    040828 J95  0.3+  0.0     040910 372  0.3+  0.8-    040930 349  0.1+  0.2+
    040828 J95  0.1+  0.4+    040910 372  0.3+  0.1-    040930 379  0.6+  0.1+
    040828 J95  0.2-  0.0     040911 235  0.3-  1.4-    040930 379  0.2+  0.1+
    040828 J95  0.1+  0.3-    040911 I05  0.1-  0.0     040930 379  0.1+  0.1+
    040828 809 (0.2+  2.8-)   040911 I05  0.1-  0.1-    040930 379  0.0   0.4+
    040828 809  0.1-  0.0     040911 I05  0.2-  0.2-    040930 379  0.3+  0.6+
    040828 809  0.3-  0.0     040911 349  0.1-  0.1+    040930 379  0.5+  0.2-
    040828 809  0.2-  0.0     040911 349  0.1-  0.2+    041001 349  0.1-  0.0
    040828 809  0.2-  0.0     040911 349  0.2-  0.0     041001 349  0.1-  0.0
    040828 809  0.2-  0.0     040911 349  0.0   0.2+    041001 349  0.0   0.0
    040828 H06  0.0   0.1-    040911 D86  0.7-  0.5+    041001 349  0.1+  0.1-
    040828 H06  0.1-  0.2-    040911 D86  0.4-  0.3+    041001 379  0.2-  0.6+
    040828 H06  0.5-  0.1-    040911 D86  0.7-  0.1+    041001 379  0.1+  0.1-
    040828 467  0.3-  0.3-    040911 379  0.8+  0.2+    041001 379  0.2+  0.7+
    040828 467  0.1+  0.2-    040911 379  0.2-  0.1+    041001 379  0.5+  0.3+
    040828 467  0.1+  0.0     040911 379  0.5-  0.7+    041001 379  0.1+  0.4+
    040828 467  0.5+  0.3-    040911 379  0.6+  0.4+    041002 213  0.2-  0.1+
    040828 415  0.5+  0.7+    040912 J95  0.1+  0.2-    041002 213  0.4-  0.1+
    040828 415  0.0   0.3+    040912 J95  0.1+  0.3-    041002 213  0.3-  0.0
    040828 415  0.3-  1.2-    040912 J95  0.1+  0.3+    041002 844  0.1-  0.0
    040828 467  0.1+  0.2-    040912 834  0.1-  0.1-    041002 844  0.0   0.1+
    040828 415  0.4-  1.3-    040912 834  0.1-  0.2-    041002 844  0.1-  0.2+
    040828 467  0.1-  0.2-    040912 349  0.0   0.2-    041002 844  0.0   0.1+
    040829 213  0.4-  0.2-    040912 349  0.1+  0.2-    041002 I05  0.4-  0.1+
    040829 213  0.1+  0.8+    040912 349  0.0   0.1-    041002 I05  0.2-  0.0
    040829 809  0.1-  0.2-    040912 349  0.2+  0.0     041002 I05  0.2-  0.0
    040830 673  0.0   0.0     040912 D74  1.0-  0.1+    041002 415  0.1-  0.1+
    040830 673  0.1-  0.1-    040912 D74  0.8-  0.5+    041002 415  0.3-  0.3-
    040830 673  0.0   0.0     040913 349  0.1+  0.2+    041002 415  0.0   0.6+
    040830 673  0.0   0.0     040913 349  0.2+  0.3+    041003 415  0.0   0.3+
    040830 467  0.1+  0.1-    040913 349  0.1+  0.2+    041003 415  0.5-  0.2+
    040830 467  0.1+  0.0     040913 349  0.3+  0.1+    041005 415  0.7+  0.6-
    040830 467  0.1+  0.1-    040913 379  0.2-  0.0     041005 415  0.4-  0.4+
    040830 D87 (0.9-  2.4+)   040913 379  0.3-  0.1+    041006 349  0.0   0.3-
    040830 D87  0.9-  0.8+    040913 379  0.4-  0.2+    041006 349  0.1+  0.2-
    040830 D87 (1.8-  3.4-)   040913 379  0.3+  0.1+    041006 349  0.1+  0.3-
    040830 D87 (2.6+  1.8+)   040913 379  0.1+  0.3+    041006 349  0.1+  0.2-
    040831 J95  0.2+  0.2+    040913 379  0.7+  0.2-    041006 372  0.3-  0.4+
    040831 J95  0.0   0.1+    040913 379  0.7+  0.3+    041006 372  0.3+  0.2+
    040831 J95  0.0   0.0     040914 J95  0.1+  0.1+    041006 372  0.8+  0.3-
    040831 859  0.1-  0.0     040914 J95  0.1+  0.1-    041007 415  0.3-  0.3+
    040831 859  0.1-  0.1-    040914 J95  0.2+  0.1+    041007 415  0.2-  0.6-
    040831 859  0.1-  0.2-    040916 834  0.4-  0.1-    041007 415  0.1+  0.6-
    040831 859  0.2+  0.0     040916 834  0.3-  0.0     041008 415  0.4-  0.2-
    040831 415  0.0   0.2-    040916 834  0.5-  0.1+    041009 A11  0.1-  0.5-
    040831 415  0.4+  0.1-    040917 349  0.1-  0.1+    041009 A11  0.7-  0.1-
    040831 415  0.2+  0.1-    040917 349  0.2-  0.0     041009 A11  0.7+  0.0
    040831 349  0.1+  0.0     040917 355  0.1-  0.2-    041009 I05  0.3-  0.2+
    040831 349  0.2-  0.1+    040917 355  0.1+  0.2-    041009 I05  0.3-  0.1+
    040831 349  0.2+  0.1-    040917 355  0.0   0.2-    041009 I05  0.3-  0.1+
    040831 349  0.1+  0.1-    040917 355  0.0   0.3-    041009 415  0.3+  0.2+
    040831 372  0.2-  0.7+    040917 349  0.2-  0.0     041009 415  0.0   0.1-
    040831 372  0.2-  0.3+    040917 349  0.1-  0.3-    041010 415  0.2+  0.3-
    040831 372  0.1-  0.5+    040918 235  0.7+  1.9-    041010 415  0.1+  0.1+
    040831 D74  0.5-  0.6+    040919 215  0.2+  0.2-    041010 D70  0.2-  0.2-
    040831 372  0.2-  0.7+    040919 215  0.5+  0.7-    041010 D70  0.3-  0.1-
    040831 372  0.5-  0.3-    040919 215  0.2+  0.4-    041010 D70  0.2-  0.1-
    040831 D74  0.3+  0.8+    040919 939  0.4-  0.0     041011 372  0.2+  1.0-
    040831 D74  0.0   0.8+    040919 939  0.4-  0.1+    041011 372  0.8+  0.8-
    040901 J95  0.3+  0.0     040919 939  0.4-  0.2+    041012 213  0.1-  0.0
    040901 J95  0.2+  0.6-    040919 204  0.3-  0.7+    041012 213  0.1-  0.2-
    040901 J95  0.1+  0.1-    040919 349  0.1+  0.0     041012 213  0.0   0.1-
    040901 415  0.1-  0.4+    040919 349  0.1-  0.0     041012 J78  0.1-  0.3-
    040901 415  0.0   0.8+    040919 349  0.0   0.2-    041012 J78  0.0   0.3-
    040901 D86  1.7-  0.5-    040919 349  0.1+  0.1-    041012 J78  0.1-  0.3-
    040901 D86  0.4-  0.2-    040920 I05  0.3-  0.2+    041012 445  0.7+  0.2-
    040901 D86  1.2-  1.2+    040920 I05  0.2-  0.2+    041012 445  0.2+  0.1-
    040902 620  0.1+  0.0     040920 I05  0.2-  0.1+    041012 445  0.0   0.1-
    040902 620  0.1+  0.2-    040920 349  0.0   0.1-    041012 445  0.6-  0.2-
    040902 620  0.0   0.1-    040920 349  0.0   0.3-    041012 415  0.2-  0.3+
    040903 415  0.4+  0.7+    040920 349  0.1+  0.1-    041012 415  0.2-  0.2+
    040903 415  0.2+  0.1+    040920 349  0.0   0.1-    041012 415  0.4-  0.2+
    040903 415  0.1-  0.2+    040921 J97  0.1-  0.1+    041013 A33  0.4-  0.5-
    040904 J95  0.1-  0.6+    040921 J97  0.6-  0.0     041013 A33  0.4-  0.2+
    040904 J95  0.0   0.0     040921 415  0.4+  0.7+    041014 834  0.0   0.0
    040904 J95  0.1-  0.3+    040921 415  0.1-  0.2+    041014 834  0.0   0.0
    040905 859  0.2+  0.1-    040921 349  0.0   0.1+    041014 379  0.4-  0.0
    040905 859  0.2-  0.1-    040921 349  0.0   0.2+    041014 379  0.4+  0.4+
    040905 859  0.1+  0.3-    040921 349  0.0   0.1-    041014 379  0.2+  0.0
    040905 859  0.4-  0.2+    040921 349  0.1-  0.2+    041015 I77  0.2-  0.0
    040906 859  0.0   0.0     040922 379  0.2+  0.0     041015 I77  0.2+  0.0
    040906 859  0.3-  0.2-    040922 379  0.3+  0.6+    041015 415  0.4-  0.1+
    040906 859  0.2+  0.2-    040922 379  0.9+  0.4+    041015 415  0.0   0.6+
    040906 859  0.2+  0.2-    040922 379  0.9+  0.4+    041016 A02  0.1-  0.0
    040906 859  0.2+  0.1-    040923 415  0.1-  0.3-    041016 A02  0.1-  0.1+
    040906 415  0.3-  0.5-    040923 415  0.5-  0.4+    041016 A02  0.1-  0.0
    040906 415  0.2-  0.1-    040924 213  0.5-  0.2-    041016 360  0.4-  0.0
    040907 859  0.3+  0.1-    040924 213  0.1-  0.1+    041016 360  0.4-  0.0
    040907 859  0.2-  0.1-    040924 213  0.0   0.2-    041016 379  0.1-  0.2-
    040908 615  0.2+  0.0     040924 I77  0.9+  0.5-    041016 379  0.1+  0.2-
    040908 615  0.2+  0.1+    040924 834  0.2+  0.0     041016 379  0.1+  0.3-
    040908 615  0.1+  0.1+    040924 I77  1.0+  0.4-    041017 A06  0.6+  0.1-
    040908 615  0.2+  0.0     040924 I77  0.3+  0.1-    041017 A06  0.0   0.0
    040908 859  0.1+  0.2-    040924 834  0.0   0.3+    041017 A06  0.4-  0.6+
    040908 859  0.4+  0.1+    040924 I77  0.0   0.2+    041017 A06  0.3+  0.3+
    040908 859  0.1-  0.3-    040926 834  0.2-  0.1-    041017 379  0.3+  0.4+
    040908 859  0.1-  0.3-    040926 834  0.1-  0.1-    041017 379  0.9+  0.4+
    040908 415  0.1-  0.2+    040926 834  0.1-  0.0     041017 379  0.6+  0.1+
    040908 D74  0.7-  0.6+    040927 I77  0.1+  0.1-
    
         The "original" and "future" barycentric values of 1/a are +0.000403
    and +0.001855 (+/- 0.000017) AU^-1, respectively.
    
    Brian G. Marsden             (C) Copyright 2004 MPC           M.P.E.C. 2004-U13
    

    Read MPEC 2004-U12 Read MPEC 2004-U14


    MPEC number:

    Enter an MPEC number in one of the following forms:

    • 1997-B01 (the full form)
    • J97B01 (the packed version of the full form)
    • B01 (the abbreviated form)